Location: Hackbridge
(51.3833°N, 0.1500°W)
Time: 13:47:11
(UTC+00:00)

Lacrosse 5 rocket - Pass Details

Date: 13 October 2019
Orbit: 459 x 639 km, 57.0° (Epoch: 11 November)

Event Time Altitude Azimuth Distance (km) Brightness Sun altitude
Rises 19:52:35 0° 292° (WNW) 2,567 6.1 -25.4°
Reaches altitude 10° 19:55:20 10° 270° (W) 1,713 4.7 -25.8°
Maximum altitude 19:57:45 16° 231° (SW) 1,397 3.7 -26.2°
Enters shadow 19:58:20 16° 220° (SW) 1,425 3.6 -26.3°
